Satellite: RS-30
Catalog number: 32953
Epoch time:      12243.58040114
Element set:     101
Inclination:      082.4971 deg
RA of node:       248.8735 deg
Eccentricity:    0.0019537
Arg of perigee:   141.9334 deg
Mean anomaly:     218.3130 deg
Mean motion:   12.43027077 rev/day
Decay rate:        1.0e-07 rev/day^2
Epoch rev:           19380
Checksum:              264

Satellite: PHARMSAT
Catalog number: 35002
Epoch time:      12226.86484473
Element set:      78
Inclination:      040.4341 deg
RA of node:       050.6671 deg
Eccentricity:    0.0012079
Arg of perigee:   300.9773 deg
Mean anomaly:     059.0492 deg
Mean motion:   16.39309245 rev/day
Decay rate:   7.728342e-02 rev/day^2
Epoch rev:           18355
Checksum:              302

Satellite: METEOR-M
Catalog number: 35865
Epoch time:      12243.81167309
Element set:     732
Inclination:      098.6475 deg
RA of node:       296.7108 deg
Eccentricity:    0.0002112
Arg of perigee:   177.5261 deg
Mean anomaly:     182.5927 deg
Mean motion:   14.21867748 rev/day
Decay rate:       -2.7e-07 rev/day^2
Epoch rev:           15320
Checksum:              307

Satellite: RS-38
Catalog number: 35869
Epoch time:      12243.68092697
Element set:     730
Inclination:      098.6427 deg
RA of node:       296.5658 deg
Eccentricity:    0.0004223
Arg of perigee:   187.4762 deg
Mean anomaly:     172.6354 deg
Mean motion:   14.22083793 rev/day
Decay rate:        6.0e-08 rev/day^2
Epoch rev:           15320
Checksum:              330

Satellite: JUGNU
Catalog number: 37839
Epoch time:      12242.45052923
Element set:    0217
Inclination:      019.9629 deg
RA of node:       274.3908 deg
Eccentricity:    0.0018983
Arg of perigee:   312.0553 deg
Mean anomaly:     047.8219 deg
Mean motion:   14.12075531 rev/day
Decay rate:       6.20e-06 rev/day^2
Epoch rev:           04561
Checksum:              291

Satellite: SRMSAT
Catalog number: 37841
Epoch time:      12242.46328872
Element set:    0219
Inclination:      019.9720 deg
RA of node:       280.6240 deg
Eccentricity:    0.0012121
Arg of perigee:   274.0380 deg
Mean anomaly:     085.8689 deg
Mean motion:   14.10156374 rev/day
Decay rate:       2.64e-06 rev/day^2
Epoch rev:           04555
Checksum:              283

Satellite: RAX-2
Catalog number: 37853
Epoch time:      12242.93037434
Element set:    0284
Inclination:      101.7073 deg
RA of node:       316.7042 deg
Eccentricity:    0.0245732
Arg of perigee:   140.6567 deg
Mean anomaly:     221.2771 deg
Mean motion:   14.80501486 rev/day
Decay rate:      5.550e-05 rev/day^2
Epoch rev:           04531
Checksum:              276

Satellite: AUBIESAT
Catalog number: 37854
Epoch time:      12242.93262894
Element set:    0279
Inclination:      101.7114 deg
RA of node:       317.0564 deg
Eccentricity:    0.0246628
Arg of perigee:   139.8203 deg
Mean anomaly:     222.1527 deg
Mean motion:   14.80939734 rev/day
Decay rate:      6.183e-05 rev/day^2
Epoch rev:           04530
Checksum:              301

Satellite: HRBE
Catalog number: 37855
Epoch time:      12242.88649180
Element set:    0284
Inclination:      101.7096 deg
RA of node:       316.9188 deg
Eccentricity:    0.0247095
Arg of perigee:   140.1732 deg
Mean anomaly:     221.7883 deg
Mean motion:   14.80762158 rev/day
Decay rate:      5.537e-05 rev/day^2
Epoch rev:           04529
Checksum:              323

Satellite: RS-39
Catalog number: 38051
Epoch time:      12243.83293256
Element set:     656
Inclination:      051.6382 deg
RA of node:       163.8408 deg
Eccentricity:    0.0012138
Arg of perigee:   310.0470 deg
Mean anomaly:     116.4304 deg
Mean motion:   15.25401498 rev/day
Decay rate:      6.677e-05 rev/day^2
Epoch rev:            3336
Checksum:              289

Satellite: E-STAR
Catalog number: 38079
Epoch time:      12243.70875091
Element set:     468
Inclination:      069.4813 deg
RA of node:       144.8086 deg
Eccentricity:    0.0724004
Arg of perigee:   153.7464 deg
Mean anomaly:     210.2375 deg
Mean motion:   14.19175023 rev/day
Decay rate:     3.1219e-04 rev/day^2
Epoch rev:            2814
Checksum:              295

Satellite: GOLIAT
Catalog number: 38085
Epoch time:      12243.68326583
Element set:     437
Inclination:      069.4852 deg
RA of node:       145.4003 deg
Eccentricity:    0.0730509
Arg of perigee:   154.2104 deg
Mean anomaly:     209.7534 deg
Mean motion:   14.18105863 rev/day
Decay rate:     3.1203e-04 rev/day^2
Epoch rev:            2812
Checksum:              279

Satellite: HORYU-2
Catalog number: 38340
Epoch time:      12242.88211159
Element set:     118
Inclination:      098.1781 deg
RA of node:       182.7949 deg
Eccentricity:    0.0014042
Arg of perigee:   096.3926 deg
Mean anomaly:     263.8900 deg
Mean motion:   14.70115456 rev/day
Decay rate:       9.41e-06 rev/day^2
Epoch rev:            1530
Checksum:              291

